Regional Weather Roundup
Issued by NWS

Home | Current Version | Previous Version | Graphics & Text | Print | Product List | Glossary Off
Versions: 1 2 3 4 5 6 7 8 9 10 11 12 13 14 15 16 17 18 19 20 21 22 23 24 25 26 27 28 29 30 31 32 33 34 35 36 37 38 39 40 41 42 43 44 45 46 47 48 49 50

272
ASUS43 KTOP 292059
RWRKS

WEATHER ROUNDUP FOR KANSAS
NATIONAL WEATHER SERVICE GOODLAND KS
400 PM CDT MON MAY 29 2017

NOTE:  "FAIR" INDICATES FEW OR NO CLOUDS BELOW 12,000 FEET WITH NO
SIGNIFICANT WEATHER AND/OR OBSTRUCTIONS TO VISIBILITY.

KSZ001>006-013>018-027>032-041>047-292200-
NORTHWEST KANSAS

CITY           SKY/WX    TMP DP  RH WIND       PRES   REMARKS
GOODLAND       SUNNY     72  43  35 NW8       30.15F
HAYS           CLOUDY    74  45  35 W13G20    30.10R
HILL CITY      CLOUDY    77  40  26 NW8       30.10F
RUSSELL        SUNNY     76  46  34 N15G22    30.07S
$$

KSZ061>065-074>080-084>089-292200-
SOUTHWEST KANSAS

CITY           SKY/WX    TMP DP  RH WIND       PRES   REMARKS
DODGE CITY     MOSUNNY   81  42  25 N8G17     30.11S
ELKHART          N/A     76  43  31 MISG        N/A
GARDEN CITY    SUNNY     79  40  24 VRB5      30.11F
GREAT BEND     CLOUDY    77  52  41 N7        30.09S
LIBERAL        MOSUNNY   80  42  25 N6        30.12F
$$

KSZ066>073-081>083-090>101-292200-
SOUTHEAST KANSAS

CITY           SKY/WX    TMP DP  RH WIND       PRES   REMARKS
CHANUTE        SUNNY     85  48  27 NW12      30.00F
COFFEYVILLE    SUNNY     87  56  34 NW8       29.99F
HUTCHINSON     MOSUNNY   84  49  29 NW12      30.04F
MEDICINE LODGE   N/A     85  48  27 N9        30.04F
NEWTON         SUNNY     83  48  29 W10       30.04F
PARSONS        SUNNY     86  52  30 VRB6      30.01F
WICHITA INTL   MOSUNNY   84  48  28 W10       30.02F
WICHITA JABRA  MOSUNNY   85  49  28 NW14      30.02F
WINFIELD       SUNNY     86  50  28 NW13      30.03F
$$

KSZ007>012-019>026-033>040-048>060-102>105-292200-
NORTHEAST KANSAS

CITY           SKY/WX    TMP DP  RH WIND       PRES   REMARKS
CONCORDIA      MOSUNNY   74  48  39 W9G21     30.04F
EMPORIA        MOSUNNY   81  54  39 NW9       30.02S
LAWRENCE       SUNNY     80  49  33 W14       30.01R
MANHATTAN      SUNNY     81  48  31 VRB3      30.01F
OLATHE IND     SUNNY     79  51  37 W7        30.01S
OLATHE EXE     SUNNY     79  48  33 VRB6      30.00S
SALINA         SUNNY     83  50  31 N13       30.04F
TOPEKA BILLARD SUNNY     81  49  32 NW8       30.00F
TOPEKA FORBES  SUNNY     82  52  35 W9        30.01S
$$




USA.gov is the U.S. government's official web portal to all federal, state and local government web resources and services.